Flag for Switzerland Weather past 2 weeks in Horw, Lucerne, Switzerland

Now
35 °F

Chilly.


Feels Like: 29 °F
Forecast: 15 / 32 °F
Wind: 7 mph from Southwest

Location: Giswil

Current Time: Feb 2, 2015 at 3:20:55 AM

Latest Report: Feb 2, 2015 at 2:00 AM


Visibility: N/A

Pressure: 29.57 "Hg

Humidity: 66%

Dew point: 24 °F

Location of HorwLocation

Historic Weather in Horw — Graph

°F

Horw temperature yesterday

Maximum temperature yesterday: 35 °F (at 2:00 PM)
Minimum temperature yesterday: 24 °F (at 4:00 AM)
Average temperature yesterday: 31 °F

Past Weeks' High & Low Weather Summary

 TemperatureHumidityPressure
High39 °F (Jan 28, 9:00 PM)100% (Jan 18, 2:00 AM)30.50 "Hg (Jan 18, 2:00 AM)
Low17 °F (Jan 28, 7:00 AM)50% (Jan 30, 10:00 AM)28.91 "Hg (Jan 30, 1:00 AM)
Average32 °F92%29.89 "Hg
* Reported Jan 18 2:00 AM — Feb 2 2:00 AM, Horw, Weather by CustomWeather, © 2014

Note: Actual official high and low records may vary slightly from our data, if they occured in-between our weather recording intervals... More about our weather records

Advertising

Horw weather history for previous 24 hours

 ConditionsComfort  
Time TempWeatherWind HumidityBarometerVisibility
2:00 AM
Feb 2
35 °FChilly.7 mph66%29.57 "HgN/A
1:00 AM36 °FChilly.7 mph59%29.56 "HgN/A
12:00 AM33 °FChilly.5 mph73%29.56 "HgN/A
11:00 PM
Feb 1
33 °FChilly.3 mph78%29.57 "HgN/A
10:00 PM32 °FChilly.No wind95%29.60 "HgN/A
9:00 PM31 °FChilly.1 mph100%29.60 "HgN/A
8:00 PM31 °FChilly.1 mph100%29.58 "HgN/A
7:00 PM32 °FChilly.1 mph100%29.56 "HgN/A
6:00 PM32 °FChilly.No wind100%29.54 "HgN/A
5:00 PM33 °FChilly.2 mph96%29.50 "HgN/A
4:00 PM34 °FChilly.7 mph90%29.47 "HgN/A
3:00 PM34 °FChilly.7 mph84%29.44 "HgN/A
2:00 PM35 °FChilly.13 mph78%29.41 "HgN/A
1:00 PM35 °FChilly.No wind81%29.38 "HgN/A
12:00 PM33 °FChilly.2 mph95%29.41 "HgN/A
11:00 AM32 °FChilly.2 mph100%29.41 "HgN/A
10:00 AM31 °FChilly.No wind100%29.35 "HgN/A
9:00 AM30 °FChilly.1 mph100%29.35 "HgN/A
8:00 AM31 °FChilly.No wind100%29.32 "HgN/A
7:00 AM31 °FChilly.1 mph100%29.32 "HgN/A
6:00 AM31 °FChilly.1 mph100%29.29 "HgN/A
5:00 AM29 °FChilly.1 mph100%29.26 "HgN/A
4:00 AM24 °FCold.1 mph100%29.29 "HgN/A
3:00 AM30 °FChilly.1 mph100%29.29 "HgN/A
Weather by CustomWeather, © 2014

See weather overviewHow to use our weather pages